,,,PA_Meas_PMT16A,,PR_Meas_QMR101_102,,RH_Meas_QMH101,,SR_Meas_QMS101,,TA_Meas_QMH101,,GenWind,,GenWind,
date,time,status,PA,status,PR,status,RH,status,SR,status,TA,status,DirAvg,status,SpdAvg,
2008-11-20, 00:00:04,VALID,1010.29,VALID,0.5,VALID,95.7032,VALID,0,VALID,23.7914,VALID,306,VALID,0.876172,
2008-11-20, 00:01:04,VALID,1010.3,VALID,1,VALID,95.688,VALID,0,VALID,23.7914,VALID,330,VALID,0.608203,
2008-11-20, 00:02:04,VALID,1010.32,VALID,0.5,VALID,95.6956,VALID,0,VALID,23.8109,VALID,310,VALID,0.935156,
2008-11-20, 00:03:04,VALID,1010.29,VALID,1,VALID,95.6956,VALID,0,VALID,23.8109,VALID,323,VALID,0.532031,
2008-11-20, 00:04:04,VALID,1010.27,VALID,1,VALID,95.7108,VALID,0,VALID,23.8499,VALID,314,VALID,0.455469,
2008-11-20, 00:05:04,VALID,1010.24,VALID,1,VALID,95.6727,VALID,0,VALID,23.7914,VALID,302,VALID,1.39883,
2008-11-20, 00:06:04,VALID,1010.21,VALID,1,VALID,95.7108,VALID,0,VALID,23.7525,VALID,305,VALID,1.05977,
2008-11-20, 00:07:04,VALID,1010.21,VALID,1,VALID,95.7108,VALID,0,VALID,23.733,VALID,313,VALID,1.7918,
2008-11-20, 00:08:04,VALID,1010.16,VALID,1,VALID,95.7032,VALID,0,VALID,23.7135,VALID,324,VALID,0.696094,
2008-11-20, 00:09:04,VALID,1010.17,VALID,0.5,VALID,95.7185,VALID,0,VALID,23.7135,VALID,6,VALID,0.585547,
2008-11-20, 00:10:04,VALID,1010.15,VALID,1.5,VALID,95.7032,VALID,0,VALID,23.6745,VALID,308,VALID,1.72109,
2008-11-20, 00:11:04,VALID,1010.12,VALID,1,VALID,95.7261,VALID,0,VALID,23.6745,VALID,313,VALID,0.903516,
2008-11-20, 00:12:04,VALID,1010.09,VALID,0.5,VALID,95.7337,VALID,0,VALID,23.6745,VALID,33,VALID,1.16328,
2008-11-20, 00:13:04,VALID,1010.1,VALID,1,VALID,95.7261,VALID,0,VALID,23.694,VALID,312,VALID,0.467578,
2008-11-20, 00:14:04,VALID,1010.1,VALID,0.5,VALID,95.7566,VALID,0,VALID,23.6745,VALID,300,VALID,1.08945,
2008-11-20, 00:15:04,VALID,1010.04,VALID,1,VALID,95.749,VALID,0,VALID,23.694,VALID,280,VALID,0.836719,
2008-11-20, 00:16:04,VALID,1010.02,VALID,0.5,VALID,95.7413,VALID,0,VALID,23.694,VALID,291,VALID,1.13047,
2008-11-20, 00:17:04,VALID,1010.04,VALID,0.5,VALID,95.7566,VALID,0,VALID,23.733,VALID,274,VALID,0.708203,
2008-11-20, 00:18:04,VALID,1010.03,VALID,0.5,VALID,95.7566,VALID,0,VALID,23.733,VALID,280,VALID,0.989062,
2008-11-20, 00:19:04,VALID,1010.01,VALID,1,VALID,95.7413,VALID,0,VALID,23.7117,VALID,308,VALID,0.746875,
2008-11-20, 00:20:04,VALID,1009.98,VALID,1,VALID,95.7413,VALID,0,VALID,23.733,VALID,274,VALID,1.82539,
2008-11-20, 00:21:04,VALID,1010.02,VALID,1,VALID,95.7642,VALID,0,VALID,23.733,VALID,249,VALID,0.723437,
2008-11-20, 00:22:04,VALID,1010,VALID,1,VALID,95.7642,VALID,0,VALID,23.733,VALID,270,VALID,1.06602,
2008-11-20, 00:23:04,VALID,1010,VALID,0.5,VALID,95.749,VALID,0,VALID,23.7135,VALID,304,VALID,1.13789,
2008-11-20, 00:24:04,VALID,1010,VALID,0.5,VALID,95.7642,VALID,0.105969,VALID,23.7507,VALID,247,VALID,0.699219,
2008-11-20, 00:25:04,VALID,1010.02,VALID,0,VALID,95.749,VALID,0.105969,VALID,23.7312,VALID,203,VALID,0.302734,
2008-11-20, 00:26:04,VALID,1010.02,VALID,0.5,VALID,95.7718,VALID,0.105969,VALID,23.7312,VALID,238,VALID,1.38047,
2008-11-20, 00:27:04,VALID,1010.05,VALID,0,VALID,95.7795,VALID,0.105969,VALID,23.6532,VALID,207,VALID,1.84531,
2008-11-20, 00:28:04,VALID,1010.03,VALID,0.5,VALID,95.7718,VALID,0.105969,VALID,23.6338,VALID,218,VALID,1.11523,
2008-11-20, 00:29:04,VALID,1010.04,VALID,0.5,VALID,95.7642,VALID,0.105969,VALID,23.5363,VALID,203,VALID,1.22148,
2008-11-20, 00:30:04,VALID,1010.03,VALID,0.5,VALID,95.7718,VALID,0,VALID,23.4,VALID,188,VALID,1.47578,
2008-11-20, 00:31:04,VALID,1010.03,VALID,0.5,VALID,95.8023,VALID,0.105969,VALID,23.322,VALID,192,VALID,0.974219,
2008-11-20, 00:32:04,VALID,1009.99,VALID,0.5,VALID,95.8023,VALID,0.105969,VALID,23.2831,VALID,187,VALID,1.08516,
2008-11-20, 00:33:04,VALID,1009.98,VALID,0.5,VALID,95.8023,VALID,0,VALID,23.1857,VALID,196,VALID,0.935938,
2008-11-20, 00:34:04,VALID,1009.96,VALID,0.5,VALID,95.8557,VALID,0.105969,VALID,23.1467,VALID,186,VALID,0.848828,
2008-11-20, 00:35:04,VALID,1009.93,VALID,0.5,VALID,95.8481,VALID,0.105969,VALID,23.2069,VALID,211,VALID,0.569531,
2008-11-20, 00:36:04,VALID,1009.88,VALID,1,VALID,95.8557,VALID,0,VALID,23.1662,VALID,218,VALID,0.215234,
2008-11-20, 00:37:04,VALID,1009.81,VALID,0.5,VALID,95.8557,VALID,0.105969,VALID,23.1857,VALID,218,VALID,0.110156,
2008-11-20, 00:38:04,VALID,1009.73,VALID,0.5,VALID,95.8633,VALID,0.105969,VALID,23.1857,VALID,287,VALID,0.685156,
2008-11-20, 00:39:04,VALID,1009.73,VALID,0,VALID,95.8862,VALID,0,VALID,23.1874,VALID,282,VALID,0.334375,
2008-11-20, 00:40:04,VALID,1009.67,VALID,0.5,VALID,95.8633,VALID,0,VALID,23.1679,VALID,337,VALID,0.820703,
2008-11-20, 00:41:04,VALID,1009.65,VALID,0,VALID,95.871,VALID,0,VALID,23.1874,VALID,347,VALID,0.307422,
2008-11-20, 00:42:04,VALID,1009.61,VALID,0.5,VALID,95.8786,VALID,0,VALID,23.1874,VALID,313,VALID,0.462109,
2008-11-20, 00:43:04,VALID,1009.58,VALID,0,VALID,95.871,VALID,0,VALID,23.1874,VALID,130,VALID,0.489453,
2008-11-20, 00:44:04,VALID,1009.6,VALID,0,VALID,95.8786,VALID,0,VALID,23.1679,VALID,47,VALID,0.211719,
2008-11-20, 00:45:04,VALID,1009.62,VALID,0,VALID,95.8557,VALID,0,VALID,23.129,VALID,236,VALID,1.19727,
2008-11-20, 00:46:04,VALID,1009.59,VALID,0.5,VALID,95.871,VALID,0,VALID,23.0705,VALID,195,VALID,0.761719,
2008-11-20, 00:47:04,VALID,1009.6,VALID,0.5,VALID,95.8862,VALID,0,VALID,23.09,VALID,196,VALID,0.470313,
2008-11-20, 00:48:04,VALID,1009.59,VALID,0.5,VALID,95.8786,VALID,0,VALID,23.0705,VALID,196,VALID,0.244922,
2008-11-20, 00:49:04,VALID,1009.57,VALID,0.5,VALID,95.9015,VALID,0,VALID,23.0316,VALID,196,VALID,0,
2008-11-20, 00:50:04,VALID,1009.52,VALID,0.5,VALID,95.8939,VALID,0,VALID,23.0511,VALID,196,VALID,0.182031,
2008-11-20, 00:51:04,VALID,1009.51,VALID,0.5,VALID,95.8939,VALID,0,VALID,23.09,VALID,196,VALID,0.235938,
2008-11-20, 00:52:04,VALID,1009.45,VALID,0.5,VALID,95.9091,VALID,0,VALID,23.0705,VALID,198,VALID,0.44375,
2008-11-20, 00:53:04,VALID,1009.42,VALID,0.5,VALID,95.8939,VALID,0,VALID,23.0121,VALID,330,VALID,0.522266,
2008-11-20, 00:54:04,VALID,1009.36,VALID,0.5,VALID,95.9244,VALID,0,VALID,23.0316,VALID,329,VALID,0.610156,
2008-11-20, 00:55:04,VALID,1009.32,VALID,0.5,VALID,95.9167,VALID,0,VALID,23.09,VALID,330,VALID,0.653906,
2008-11-20, 00:56:04,VALID,1009.29,VALID,0,VALID,95.9091,VALID,0,VALID,23.1095,VALID,330,VALID,0.595312,
2008-11-20, 00:57:04,VALID,1009.24,VALID,0.5,VALID,95.9167,VALID,0,VALID,23.129,VALID,330,VALID,0.467187,
2008-11-20, 00:58:04,VALID,1009.22,VALID,0.5,VALID,95.9167,VALID,0,VALID,23.1679,VALID,351,VALID,0.555469,
2008-11-20, 00:59:04,VALID,1009.21,VALID,0,VALID,95.9167,VALID,0,VALID,23.129,VALID,20,VALID,0.444922,
2008-11-20, 01:00:04,VALID,1009.2,VALID,0.5,VALID,95.9091,VALID,0,VALID,23.129,VALID,13,VALID,0.692187,
2008-11-20, 01:01:04,VALID,1009.16,VALID,0,VALID,95.9015,VALID,0,VALID,23.0493,VALID,32,VALID,0.639063,
2008-11-20, 01:02:04,VALID,1009.17,VALID,0.5,VALID,95.932,VALID,0,VALID,23.0705,VALID,38,VALID,0.297656,
2008-11-20, 01:03:04,VALID,1009.14,VALID,0,VALID,95.932,VALID,0,VALID,23.09,VALID,57,VALID,0.854688,
2008-11-20, 01:04:04,VALID,1009.11,VALID,0,VALID,95.9396,VALID,0,VALID,23.0705,VALID,94,VALID,0.825,
2008-11-20, 01:05:04,VALID,1009.11,VALID,0,VALID,95.932,VALID,0,VALID,23.0705,VALID,79,VALID,1.05898,
2008-11-20, 01:06:04,VALID,1009.11,VALID,0.5,VALID,95.9396,VALID,0,VALID,23.1095,VALID,79,VALID,1.07383,
2008-11-20, 01:07:04,VALID,1009.09,VALID,0,VALID,95.9396,VALID,0,VALID,23.1095,VALID,73,VALID,0.8,
2008-11-20, 01:08:04,VALID,1009.07,VALID,0,VALID,95.9396,VALID,0,VALID,23.1095,VALID,77,VALID,0.959766,
2008-11-20, 01:09:04,VALID,1009.02,VALID,0,VALID,95.932,VALID,0,VALID,23.1095,VALID,78,VALID,0.907812,
2008-11-20, 01:10:04,VALID,1009.06,VALID,0,VALID,95.9472,VALID,0,VALID,23.09,VALID,71,VALID,0.764063,
2008-11-20, 01:11:04,VALID,1009.01,VALID,0.5,VALID,95.9396,VALID,0.105969,VALID,23.0705,VALID,55,VALID,0.929688,
2008-11-20, 01:12:04,VALID,1008.99,VALID,0,VALID,95.9472,VALID,0,VALID,23.0511,VALID,57,VALID,0.500391,
2008-11-20, 01:13:04,VALID,1008.97,VALID,0,VALID,95.9701,VALID,0,VALID,23.09,VALID,59,VALID,0.503516,
2008-11-20, 01:14:04,VALID,1008.93,VALID,0,VALID,95.9549,VALID,0,VALID,23.0316,VALID,56,VALID,0.699219,
2008-11-20, 01:15:04,VALID,1008.9,VALID,0,VALID,95.9625,VALID,0,VALID,23.0121,VALID,50,VALID,0.305469,
2008-11-20, 01:16:04,VALID,1008.88,VALID,0,VALID,95.9625,VALID,0,VALID,23.0316,VALID,50,VALID,0.573438,
2008-11-20, 01:17:04,VALID,1008.86,VALID,0,VALID,95.9701,VALID,0,VALID,22.9731,VALID,42,VALID,0.320313,
2008-11-20, 01:18:04,VALID,1008.83,VALID,0,VALID,95.9549,VALID,0.105969,VALID,22.9926,VALID,42,VALID,0.0347656,
2008-11-20, 01:19:04,VALID,1008.82,VALID,0,VALID,95.9472,VALID,0,VALID,22.9714,VALID,4,VALID,0.342578,
2008-11-20, 01:20:04,VALID,1008.79,VALID,0,VALID,95.9625,VALID,0.105969,VALID,22.9731,VALID,4,VALID,0.324219,
2008-11-20, 01:21:04,VALID,1008.78,VALID,0,VALID,95.9701,VALID,0,VALID,23.0121,VALID,331,VALID,0.457812,
2008-11-20, 01:22:04,VALID,1008.75,VALID,0,VALID,95.9701,VALID,0,VALID,23.0316,VALID,334,VALID,0.552344,
2008-11-20, 01:23:04,VALID,1008.74,VALID,0,VALID,95.9701,VALID,0.105969,VALID,23.0511,VALID,348,VALID,0.446484,
2008-11-20, 01:24:04,VALID,1008.73,VALID,0,VALID,95.9701,VALID,0,VALID,23.0511,VALID,352,VALID,0.669922,
2008-11-20, 01:25:04,VALID,1008.69,VALID,0,VALID,95.993,VALID,0,VALID,23.0316,VALID,348,VALID,0.561328,
2008-11-20, 01:26:04,VALID,1008.71,VALID,0,VALID,95.9854,VALID,0,VALID,23.0103,VALID,357,VALID,0.544141,
2008-11-20, 01:27:04,VALID,1008.72,VALID,0.5,VALID,95.9854,VALID,0.105969,VALID,23.0316,VALID,356,VALID,0.4875,
2008-11-20, 01:28:04,VALID,1008.69,VALID,0,VALID,95.9625,VALID,0,VALID,23.0511,VALID,18,VALID,0.517969,
2008-11-20, 01:29:04,VALID,1008.68,VALID,0,VALID,95.9777,VALID,0.105969,VALID,23.0316,VALID,20,VALID,0.608594,
2008-11-20, 01:30:04,VALID,1008.68,VALID,0,VALID,95.9854,VALID,0,VALID,23.0103,VALID,15,VALID,0.592188,
2008-11-20, 01:31:04,VALID,1008.68,VALID,0,VALID,95.9854,VALID,0,VALID,23.0121,VALID,24,VALID,0.507422,
2008-11-20, 01:32:04,VALID,1008.69,VALID,0,VALID,95.9854,VALID,0,VALID,23.0121,VALID,24,VALID,0.477344,
2008-11-20, 01:33:04,VALID,1008.71,VALID,0,VALID,95.993,VALID,0.105969,VALID,22.9909,VALID,31,VALID,0.467187,
2008-11-20, 01:34:04,VALID,1008.68,VALID,0,VALID,96.0159,VALID,0,VALID,23.0121,VALID,39,VALID,0.340234,
2008-11-20, 01:35:04,VALID,1008.71,VALID,0,VALID,96.0006,VALID,0,VALID,22.9926,VALID,76,VALID,0.798047,
2008-11-20, 01:36:04,VALID,1008.69,VALID,0,VALID,96.0082,VALID,0,VALID,22.9926,VALID,81,VALID,0.688672,
2008-11-20, 01:37:04,VALID,1008.7,VALID,0,VALID,95.9854,VALID,0.105969,VALID,22.9926,VALID,74,VALID,1.04297,
2008-11-20, 01:38:04,VALID,1008.74,VALID,0,VALID,95.993,VALID,0,VALID,22.9536,VALID,74,VALID,1.01133,
2008-11-20, 01:39:04,VALID,1008.72,VALID,0,VALID,95.993,VALID,0.105969,VALID,22.9926,VALID,80,VALID,1.12461,
2008-11-20, 01:40:04,VALID,1008.71,VALID,0,VALID,96.0006,VALID,0,VALID,22.9342,VALID,67,VALID,0.948828,
2008-11-20, 01:41:04,VALID,1008.73,VALID,0,VALID,96.0082,VALID,0.105969,VALID,22.9536,VALID,74,VALID,1.14805,
2008-11-20, 01:42:04,VALID,1008.72,VALID,0,VALID,96.0082,VALID,0,VALID,22.9342,VALID,68,VALID,1.20195,
2008-11-20, 01:43:04,VALID,1008.7,VALID,0,VALID,96.0082,VALID,0.105969,VALID,22.9147,VALID,31,VALID,0.595312,
2008-11-20, 01:44:04,VALID,1008.69,VALID,0,VALID,96.0159,VALID,0,VALID,22.9147,VALID,72,VALID,0.921875,
2008-11-20, 01:45:04,VALID,1008.67,VALID,0,VALID,96.0159,VALID,0,VALID,22.9342,VALID,67,VALID,0.220313,
2008-11-20, 01:46:04,VALID,1008.65,VALID,0,VALID,96.0159,VALID,0,VALID,22.8952,VALID,35,VALID,0.418359,
2008-11-20, 01:47:04,VALID,1008.62,VALID,0,VALID,96.0159,VALID,0.105969,VALID,22.9147,VALID,1,VALID,0.829297,
2008-11-20, 01:48:04,VALID,1008.57,VALID,0,VALID,96.0387,VALID,0.105969,VALID,22.8562,VALID,10,VALID,0.386328,
2008-11-20, 01:49:04,VALID,1008.55,VALID,0,VALID,96.0159,VALID,0,VALID,22.8952,VALID,17,VALID,0.198047,
2008-11-20, 01:50:04,VALID,1008.55,VALID,0,VALID,96.0082,VALID,0,VALID,22.8952,VALID,349,VALID,0.324219,
2008-11-20, 01:51:04,VALID,1008.52,VALID,0,VALID,96.0311,VALID,0,VALID,22.9147,VALID,345,VALID,0.25625,
2008-11-20, 01:52:04,VALID,1008.49,VALID,0,VALID,96.0387,VALID,0,VALID,22.9147,VALID,308,VALID,0.51875,
2008-11-20, 01:53:04,VALID,1008.48,VALID,0,VALID,96.0464,VALID,0,VALID,22.9129,VALID,309,VALID,0.0738281,
2008-11-20, 01:54:04,VALID,1008.46,VALID,0,VALID,96.0464,VALID,0.105969,VALID,22.9147,VALID,309,VALID,0.163672,
2008-11-20, 01:55:04,VALID,1008.46,VALID,0,VALID,96.0387,VALID,0.105969,VALID,22.8935,VALID,309,VALID,0.105078,
2008-11-20, 01:56:04,VALID,1008.42,VALID,0,VALID,96.0387,VALID,0,VALID,22.9147,VALID,340,VALID,0.384375,
2008-11-20, 01:57:04,VALID,1008.47,VALID,0,VALID,96.0464,VALID,0.105969,VALID,22.9147,VALID,337,VALID,0.145313,
2008-11-20, 01:58:04,VALID,1008.46,VALID,0,VALID,96.0464,VALID,0.105969,VALID,22.9129,VALID,355,VALID,0.249219,
2008-11-20, 01:59:04,VALID,1008.43,VALID,0,VALID,96.0387,VALID,0,VALID,22.8757,VALID,47,VALID,0.437891,
2008-11-20, 02:00:04,VALID,1008.42,VALID,0,VALID,96.0692,VALID,0,VALID,22.8757,VALID,28,VALID,0.6125,
2008-11-20, 02:01:04,VALID,1008.41,VALID,0,VALID,96.0464,VALID,0,VALID,22.835,VALID,24,VALID,0.205469,
2008-11-20, 02:02:04,VALID,1008.4,VALID,0,VALID,96.0387,VALID,0,VALID,22.8368,VALID,281,VALID,0.179297,
2008-11-20, 02:03:04,VALID,1008.41,VALID,0,VALID,96.0464,VALID,0.105969,VALID,22.8545,VALID,268,VALID,0.0171875,
2008-11-20, 02:04:04,VALID,1008.4,VALID,0,VALID,96.0387,VALID,0,VALID,22.8545,VALID,341,VALID,0.302344,
2008-11-20, 02:05:04,VALID,1008.37,VALID,0,VALID,96.054,VALID,0.105969,VALID,22.8757,VALID,34,VALID,0.179297,
2008-11-20, 02:06:04,VALID,1008.36,VALID,0,VALID,96.0464,VALID,0,VALID,22.8562,VALID,52,VALID,0.108594,
2008-11-20, 02:07:04,VALID,1008.37,VALID,0,VALID,96.054,VALID,0.105969,VALID,22.8757,VALID,56,VALID,0.322656,
2008-11-20, 02:08:04,VALID,1008.34,VALID,0,VALID,96.0616,VALID,0,VALID,22.8757,VALID,11,VALID,0.104687,
2008-11-20, 02:09:04,VALID,1008.31,VALID,0,VALID,96.0464,VALID,0.105969,VALID,22.835,VALID,306,VALID,0.271484,
2008-11-20, 02:10:04,VALID,1008.33,VALID,0,VALID,96.054,VALID,0,VALID,22.8757,VALID,309,VALID,0,
2008-11-20, 02:11:04,VALID,1008.31,VALID,0,VALID,96.054,VALID,0.105969,VALID,22.835,VALID,88,VALID,0.548437,
2008-11-20, 02:12:04,VALID,1008.32,VALID,0,VALID,96.0692,VALID,0,VALID,22.8562,VALID,91,VALID,0.454688,
2008-11-20, 02:13:04,VALID,1008.32,VALID,0,VALID,96.0692,VALID,0.105969,VALID,22.8562,VALID,106,VALID,0.566406,
2008-11-20, 02:14:04,VALID,1008.31,VALID,0,VALID,96.054,VALID,0.105969,VALID,22.8385,VALID,104,VALID,0.498047,
2008-11-20, 02:15:04,VALID,1008.29,VALID,0,VALID,96.0769,VALID,0.105969,VALID,22.7961,VALID,104,VALID,0.615234,
2008-11-20, 02:16:04,VALID,1008.29,VALID,0,VALID,96.0921,VALID,0.105969,VALID,22.835,VALID,106,VALID,0.532812,
2008-11-20, 02:17:04,VALID,1008.29,VALID,0,VALID,96.0692,VALID,0.105969,VALID,22.8545,VALID,106,VALID,0.8875,
2008-11-20, 02:18:04,VALID,1008.26,VALID,0,VALID,96.0616,VALID,0,VALID,22.8562,VALID,106,VALID,0.491016,
2008-11-20, 02:19:04,VALID,1008.24,VALID,0,VALID,96.0845,VALID,0,VALID,22.8562,VALID,111,VALID,0.644922,
2008-11-20, 02:20:04,VALID,1008.25,VALID,0,VALID,96.0845,VALID,0,VALID,22.8545,VALID,107,VALID,0.294531,
2008-11-20, 02:21:04,VALID,1008.24,VALID,0,VALID,96.0769,VALID,0,VALID,22.8562,VALID,107,VALID,0.182422,
2008-11-20, 02:22:04,VALID,1008.26,VALID,0,VALID,96.0616,VALID,0,VALID,22.8757,VALID,107,VALID,0.119141,
2008-11-20, 02:23:04,VALID,1008.26,VALID,0,VALID,96.0692,VALID,0,VALID,22.8757,VALID,107,VALID,0,
2008-11-20, 02:24:04,VALID,1008.23,VALID,0,VALID,96.0769,VALID,0,VALID,22.8562,VALID,107,VALID,0.302344,
2008-11-20, 02:25:04,VALID,1008.26,VALID,0,VALID,96.0692,VALID,0.105969,VALID,22.8562,VALID,107,VALID,0.0351563,
2008-11-20, 02:26:04,VALID,1008.23,VALID,0,VALID,96.0845,VALID,0,VALID,22.8368,VALID,107,VALID,0,
2008-11-20, 02:27:04,VALID,1008.28,VALID,0,VALID,96.0921,VALID,0,VALID,22.8562,VALID,107,VALID,0.184375,
2008-11-20, 02:28:04,VALID,1008.24,VALID,0,VALID,96.0769,VALID,0,VALID,22.8368,VALID,76,VALID,0.341797,
2008-11-20, 02:29:04,VALID,1008.24,VALID,0,VALID,96.0921,VALID,0,VALID,22.8173,VALID,69,VALID,0.428906,
2008-11-20, 02:30:04,VALID,1008.23,VALID,0,VALID,96.0769,VALID,0,VALID,22.8173,VALID,43,VALID,0.5125,
2008-11-20, 02:31:04,VALID,1008.22,VALID,0,VALID,96.0845,VALID,0,VALID,22.7978,VALID,43,VALID,0.361719,
2008-11-20, 02:32:04,VALID,1008.21,VALID,0,VALID,96.0769,VALID,0,VALID,22.7783,VALID,43,VALID,0.463281,
2008-11-20, 02:33:04,VALID,1008.22,VALID,0,VALID,96.0845,VALID,0,VALID,22.7783,VALID,44,VALID,0.405469,
2008-11-20, 02:34:04,VALID,1008.2,VALID,0,VALID,96.0845,VALID,0,VALID,22.7588,VALID,44,VALID,0.210547,
2008-11-20, 02:35:04,VALID,1008.2,VALID,0,VALID,96.0997,VALID,0,VALID,22.7588,VALID,45,VALID,0.107422,
2008-11-20, 02:36:04,VALID,1008.2,VALID,0,VALID,96.0997,VALID,0,VALID,22.7394,VALID,76,VALID,0.126563,
2008-11-20, 02:37:04,VALID,1008.17,VALID,0,VALID,96.115,VALID,0,VALID,22.7588,VALID,76,VALID,0.0316406,
2008-11-20, 02:38:04,VALID,1008.19,VALID,0,VALID,96.1074,VALID,0,VALID,22.7588,VALID,76,VALID,0.133984,
2008-11-20, 02:39:04,VALID,1008.23,VALID,0,VALID,96.1074,VALID,0.105969,VALID,22.7961,VALID,76,VALID,0,
2008-11-20, 02:40:04,VALID,1008.19,VALID,0,VALID,96.0921,VALID,0,VALID,22.7961,VALID,76,VALID,0,
2008-11-20, 02:41:04,VALID,1008.18,VALID,0,VALID,96.115,VALID,0.105969,VALID,22.7961,VALID,76,VALID,0,
2008-11-20, 02:42:04,VALID,1008.19,VALID,0,VALID,96.0921,VALID,0.105969,VALID,22.8155,VALID,76,VALID,0,
2008-11-20, 02:43:04,VALID,1008.21,VALID,0,VALID,96.0921,VALID,0.105969,VALID,22.8155,VALID,76,VALID,0,
2008-11-20, 02:44:04,VALID,1008.24,VALID,0,VALID,96.1074,VALID,0.105969,VALID,22.8155,VALID,76,VALID,0,
2008-11-20, 02:45:04,VALID,1008.25,VALID,0,VALID,96.0997,VALID,0.105969,VALID,22.7766,VALID,76,VALID,0,
2008-11-20, 02:46:04,VALID,1008.25,VALID,0,VALID,96.1074,VALID,0.105969,VALID,22.8155,VALID,170,VALID,0.385156,
2008-11-20, 02:47:04,VALID,1008.28,VALID,0,VALID,96.1074,VALID,0.105969,VALID,22.7961,VALID,170,VALID,0.137109,
2008-11-20, 02:48:04,VALID,1008.29,VALID,0,VALID,96.1074,VALID,0.105969,VALID,22.835,VALID,170,VALID,0.235156,
2008-11-20, 02:49:04,VALID,1008.27,VALID,0,VALID,96.1074,VALID,0.105969,VALID,22.8155,VALID,170,VALID,0.230469,
2008-11-20, 02:50:04,VALID,1008.28,VALID,0,VALID,96.115,VALID,0.105969,VALID,22.835,VALID,170,VALID,0.234766,
2008-11-20, 02:51:04,VALID,1008.31,VALID,0,VALID,96.1074,VALID,0.105969,VALID,22.8155,VALID,170,VALID,0.119922,
2008-11-20, 02:52:04,VALID,1008.32,VALID,0,VALID,96.0921,VALID,0.105969,VALID,22.8155,VALID,170,VALID,0.177344,
2008-11-20, 02:53:04,VALID,1008.32,VALID,0,VALID,96.0921,VALID,0.105969,VALID,22.8155,VALID,170,VALID,0.347266,
2008-11-20, 02:54:04,VALID,1008.3,VALID,0,VALID,96.115,VALID,0,VALID,22.8173,VALID,170,VALID,0.423438,
2008-11-20, 02:55:04,VALID,1008.32,VALID,0,VALID,96.0997,VALID,0,VALID,22.8562,VALID,162,VALID,0.446094,
2008-11-20, 02:56:04,VALID,1008.32,VALID,0,VALID,96.0921,VALID,0,VALID,22.874,VALID,162,VALID,0.412109,
2008-11-20, 02:57:04,VALID,1008.36,VALID,0,VALID,96.115,VALID,0,VALID,22.8757,VALID,162,VALID,0.303516,
2008-11-20, 02:58:04,VALID,1008.38,VALID,0,VALID,96.0997,VALID,0,VALID,22.8562,VALID,162,VALID,0.353906,
2008-11-20, 02:59:04,VALID,1008.4,VALID,0,VALID,96.0997,VALID,0,VALID,22.8173,VALID,160,VALID,0.354297,
2008-11-20, 03:00:04,VALID,1008.43,VALID,0,VALID,96.1226,VALID,0,VALID,22.8545,VALID,152,VALID,0.604688,
2008-11-20, 03:01:04,VALID,1008.47,VALID,0,VALID,96.0997,VALID,0,VALID,22.9342,VALID,137,VALID,0.840234,
2008-11-20, 03:02:04,VALID,1008.49,VALID,0,VALID,96.0997,VALID,0,VALID,22.9129,VALID,138,VALID,1.04805,
2008-11-20, 03:03:04,VALID,1008.51,VALID,0,VALID,96.1074,VALID,0,VALID,22.9536,VALID,144,VALID,1.19805,
2008-11-20, 03:04:04,VALID,1008.51,VALID,0,VALID,96.0997,VALID,0.105969,VALID,22.874,VALID,123,VALID,1.26602,
2008-11-20, 03:05:04,VALID,1008.54,VALID,0,VALID,96.0845,VALID,0,VALID,22.8952,VALID,145,VALID,1.03125,
2008-11-20, 03:06:04,VALID,1008.56,VALID,0,VALID,96.1074,VALID,0,VALID,22.8952,VALID,132,VALID,0.795703,
2008-11-20, 03:07:04,VALID,1008.53,VALID,0,VALID,96.0921,VALID,0,VALID,22.8952,VALID,115,VALID,0.512891,
2008-11-20, 03:08:04,VALID,1008.53,VALID,0,VALID,96.0997,VALID,0,VALID,22.8952,VALID,116,VALID,0.80625,
2008-11-20, 03:09:04,VALID,1008.52,VALID,0,VALID,96.1074,VALID,0,VALID,22.8757,VALID,108,VALID,0.41875,
2008-11-20, 03:10:04,VALID,1008.5,VALID,0,VALID,96.0921,VALID,0,VALID,22.8952,VALID,117,VALID,0.674609,
2008-11-20, 03:11:04,VALID,1008.46,VALID,0,VALID,96.115,VALID,0,VALID,22.8952,VALID,114,VALID,0.813281,
2008-11-20, 03:12:04,VALID,1008.48,VALID,0,VALID,96.0845,VALID,0,VALID,22.8757,VALID,132,VALID,0.909766,
2008-11-20, 03:13:04,VALID,1008.5,VALID,0,VALID,96.1379,VALID,0,VALID,22.9147,VALID,134,VALID,0.558203,
2008-11-20, 03:14:04,VALID,1008.51,VALID,0,VALID,96.1226,VALID,0,VALID,22.8952,VALID,145,VALID,0.909375,
2008-11-20, 03:15:04,VALID,1008.52,VALID,0,VALID,96.115,VALID,0,VALID,22.8952,VALID,136,VALID,0.876562,
2008-11-20, 03:16:04,VALID,1008.52,VALID,0,VALID,96.115,VALID,0,VALID,22.9147,VALID,142,VALID,0.798047,
2008-11-20, 03:17:04,VALID,1008.54,VALID,0,VALID,96.1226,VALID,0,VALID,22.9147,VALID,146,VALID,0.806641,
2008-11-20, 03:18:04,VALID,1008.58,VALID,0,VALID,96.1226,VALID,0,VALID,22.8952,VALID,139,VALID,1.02656,
2008-11-20, 03:19:04,VALID,1008.56,VALID,0,VALID,96.1074,VALID,0,VALID,22.9147,VALID,166,VALID,0.777344,
2008-11-20, 03:20:04,VALID,1008.58,VALID,0,VALID,96.1074,VALID,0,VALID,22.9147,VALID,157,VALID,0.640625,
2008-11-20, 03:21:04,VALID,1008.57,VALID,0,VALID,96.0997,VALID,0,VALID,22.8935,VALID,168,VALID,0.758984,
2008-11-20, 03:22:04,VALID,1008.59,VALID,0,VALID,96.1074,VALID,0,VALID,22.8952,VALID,143,VALID,0.832422,
2008-11-20, 03:23:04,VALID,1008.58,VALID,0,VALID,96.1226,VALID,0,VALID,22.8952,VALID,145,VALID,0.900781,
2008-11-20, 03:24:04,VALID,1008.56,VALID,0,VALID,96.1226,VALID,0,VALID,22.8757,VALID,132,VALID,0.668359,
2008-11-20, 03:25:04,VALID,1008.56,VALID,0,VALID,96.115,VALID,0,VALID,22.9147,VALID,132,VALID,0.283203,
2008-11-20, 03:26:04,VALID,1008.57,VALID,0,VALID,96.1074,VALID,0,VALID,22.9147,VALID,128,VALID,0.339844,
2008-11-20, 03:27:04,VALID,1008.59,VALID,0,VALID,96.1226,VALID,0,VALID,22.9147,VALID,126,VALID,0.654297,
2008-11-20, 03:28:04,VALID,1008.57,VALID,0,VALID,96.1074,VALID,0,VALID,22.8952,VALID,129,VALID,0.983594,
2008-11-20, 03:29:04,VALID,1008.56,VALID,0,VALID,96.0997,VALID,0,VALID,22.9342,VALID,117,VALID,0.824219,
2008-11-20, 03:30:04,VALID,1008.57,VALID,0,VALID,96.1302,VALID,0,VALID,22.9147,VALID,107,VALID,0.607422,
2008-11-20, 03:31:04,VALID,1008.54,VALID,0,VALID,96.1302,VALID,0,VALID,22.9536,VALID,128,VALID,0.928125,
2008-11-20, 03:32:04,VALID,1008.55,VALID,0,VALID,96.1074,VALID,0,VALID,22.9147,VALID,127,VALID,0.759375,
2008-11-20, 03:33:04,VALID,1008.52,VALID,0,VALID,96.1074,VALID,0,VALID,22.8952,VALID,133,VALID,0.755859,
2008-11-20, 03:34:04,VALID,1008.51,VALID,0,VALID,96.1226,VALID,0,VALID,22.8952,VALID,148,VALID,0.826172,
2008-11-20, 03:35:04,VALID,1008.51,VALID,0,VALID,96.1226,VALID,0,VALID,22.9147,VALID,142,VALID,0.682422,
2008-11-20, 03:36:04,VALID,1008.5,VALID,0,VALID,96.1226,VALID,0,VALID,22.9147,VALID,125,VALID,0.692969,
2008-11-20, 03:37:04,VALID,1008.51,VALID,0,VALID,96.1074,VALID,0,VALID,22.9147,VALID,156,VALID,0.367188,
2008-11-20, 03:38:04,VALID,1008.45,VALID,0,VALID,96.115,VALID,0,VALID,22.9147,VALID,155,VALID,0.451562,
2008-11-20, 03:39:04,VALID,1008.44,VALID,0,VALID,96.1302,VALID,0,VALID,22.9147,VALID,155,VALID,0.537109,
2008-11-20, 03:40:04,VALID,1008.42,VALID,0,VALID,96.1226,VALID,0,VALID,22.9554,VALID,156,VALID,0.484375,
2008-11-20, 03:41:04,VALID,1008.4,VALID,0,VALID,96.115,VALID,0,VALID,22.9147,VALID,156,VALID,0.333594,
2008-11-20, 03:42:04,VALID,1008.36,VALID,0,VALID,96.0997,VALID,0,VALID,22.9359,VALID,156,VALID,0,